Ontario, OR

10:24 PM MDT on September 19, 2017 (GMT -0600)
Ontario Municipal

Weather History for KONO - January, 2013

Change the Weather History Date:

Sunday, January 20, 2013

  Actual Average Record
Temperature  
Mean Temperature 2 °F 28 °F  
Max Temperature 9 °F 36 °F 56 °F (1953)
Min Temperature -6 °F 20 °F -9 °F (1984)
Degree Days  
Heating Degree Days 63 37  
Month to date heating degree days 1069 761  
Since 1 July heating degree days 3266 3342  
Cooling Degree Days 0 0  
Month to date cooling degree days 0 0  
Year to date cooling degree days 0 0  
Moisture  
Dew Point -4 °F    
Average Humidity 76    
Maximum Humidity 83    
Minimum Humidity 69    
Precipitation  
Precipitation 0.00 in 0.04 in 0.85 in (1957)
Month to date precipitation 0.31 0.85  
Year to date precipitation 0.31 0.85  
Sea Level Pressure  
Sea Level Pressure 30.78 in    
Wind  
Wind Speed 1 mph (WSW)    
Max Wind Speed 6 mph    
Max Gust Speed 7 mph    
Visibility 2 miles    
Events Fog    
T = Trace of Precipitation, MM = Missing Value Source: NWS Daily Summary

Daily Weather History Graph

Daily Weather History Graph

Search for Another Location

Airport or City:

Trip Planner

Search our weather history database for the weather conditions in past years. The results will help you decide how hot, cold, wet, or windy it might be!

Date:

Astronomy

Jan. 20, 2013 Rise Set
Actual Time 8:16 AM MST 5:42 PM MST
Civil Twilight 7:44 AM MST 6:14 PM MST
Nautical Twilight 7:09 AM MST 6:49 PM MST
Astronomical Twilight 6:34 AM MST 7:23 PM MST
Moon 12:47 PM MST 2:51 AM MST
Length of Visible Light 10h 29m
Length of Day
9h 26m
Waxing Gibbous, 67% of the Moon is Illuminated
Jan 20
Waxing Gibbous
Jan 26
Full
Feb 3
Last Quarter
Feb 10
New
Feb 17
First Quarter

Hourly Weather History & Observations

Time (MST) Temp. Windchill Dew Point Humidity Pressure Visibility Wind Dir Wind Speed Gust Speed Precip Events Conditions
12:53 AM -5.1 °F -13.6 °F -11.0 °F 76% 30.84 in 4.0 mi West 3.5 mph - N/A   Haze
1:16 AM -5.8 °F - -11.2 °F 77% 30.67 in 4.0 mi Calm Calm - N/A   Haze
1:25 AM -4.0 °F - -9.4 °F 78% 30.67 in 4.0 mi Calm Calm - N/A   Haze
1:38 AM -4.0 °F - -9.4 °F 78% 30.67 in 4.0 mi Calm Calm - N/A   Haze
1:53 AM -2.9 °F - -9.9 °F 72% 30.85 in 4.0 mi Calm Calm - N/A   Haze
2:24 AM -5.8 °F - -11.2 °F 77% 30.68 in 2.0 mi Calm Calm - N/A   Haze
2:31 AM -5.8 °F - -9.4 °F 84% 30.68 in 1.5 mi Calm Calm - N/A   Overcast
2:44 AM -4.0 °F - -9.4 °F 78% 30.68 in 0.2 mi Calm Calm - N/A   Haze
2:53 AM -2.9 °F - -7.1 °F 82% 30.85 in 0.2 mi Calm Calm - N/A Fog Light Freezing Fog
3:53 AM -0.9 °F - -6.0 °F 79% 30.85 in 0.2 mi Calm Calm - N/A   Haze
4:53 AM -0.9 °F - -7.1 °F 75% 30.84 in 0.2 mi Calm Calm - N/A   Haze
5:53 AM -0.0 °F - -6.0 °F 76% 30.85 in 0.2 mi Calm Calm - N/A   Haze
6:53 AM 1.0 °F - -5.1 °F 75% 30.86 in 0.2 mi Calm Calm - N/A   Haze
7:53 AM 1.0 °F - -5.1 °F 75% 30.86 in 0.2 mi Calm Calm - N/A   Haze
8:53 AM 1.9 °F -7.6 °F -4.0 °F 76% 30.87 in 0.2 mi SSW 4.6 mph - N/A   Haze
9:53 AM 3.0 °F - -2.9 °F 76% 30.89 in 0.2 mi Calm Calm - N/A   Haze
11:13 AM 6.8 °F - -0.4 °F 72% 30.73 in 1.0 mi Calm Calm - N/A   Haze
11:33 AM 6.8 °F - -0.4 °F 72% 30.73 in 1.2 mi Calm Calm - N/A   Haze
11:53 AM 7.0 °F - -0.0 °F 73% 30.89 in 1.5 mi Calm Calm - N/A   Haze
12:53 PM 8.1 °F - -0.0 °F 70% 30.87 in 1.5 mi Calm Calm - N/A   Haze
1:20 PM 8.6 °F - -0.4 °F 67% 30.69 in 1.8 mi Calm Calm - N/A   Haze
1:38 PM 8.6 °F - -0.4 °F 67% 30.69 in 1.5 mi Calm Calm - N/A   Haze
1:53 PM 8.1 °F - -0.0 °F 70% 30.84 in 1.8 mi Calm Calm - N/A   Haze
2:06 PM 8.6 °F 2.0 °F -0.4 °F 67% 30.67 in 1.8 mi South 3.5 mph - N/A   Haze
2:48 PM 8.6 °F - 1.4 °F 73% 30.66 in 2.0 mi Calm Calm - N/A   Haze
2:53 PM 8.1 °F - 1.0 °F 73% 30.83 in 2.0 mi Calm Calm - N/A   Haze
3:12 PM 8.6 °F - 1.4 °F 73% 30.66 in 2.0 mi Calm Calm - N/A   Haze
3:53 PM 8.1 °F - 1.9 °F 76% 30.81 in 2.0 mi Calm Calm - N/A   Haze
4:53 PM 7.0 °F - 1.0 °F 77% 30.81 in 2.0 mi Calm Calm - N/A   Haze
5:53 PM 5.0 °F - -0.9 °F 76% 30.80 in 2.5 mi Calm Calm - N/A   Haze
6:10 PM 3.2 °F - -0.4 °F 85% 30.64 in 3.0 mi Calm Calm - N/A   Haze
6:53 PM 3.0 °F - -2.0 °F 80% 30.81 in 3.0 mi Calm Calm - N/A   Haze
7:53 PM 1.9 °F - -4.0 °F 76% 30.81 in 3.0 mi Calm Calm - N/A   Haze
8:53 PM -0.0 °F -9.9 °F -6.0 °F 76% 30.81 in 3.0 mi WSW 4.6 mph - N/A   Haze
9:53 PM 1.0 °F - -5.1 °F 75% 30.82 in 3.0 mi Calm Calm - N/A   Haze
10:36 PM -2.2 °F -10.4 °F -7.6 °F 78% 30.65 in 3.0 mi West 3.5 mph - N/A   Haze
10:53 PM -0.9 °F -8.9 °F -7.1 °F 75% 30.82 in 3.0 mi WSW 3.5 mph - N/A   Haze
11:53 PM -2.0 °F -12.2 °F -8.0 °F 76% 30.82 in 3.0 mi WSW 4.6 mph - N/A   Haze